Overall — Lake Sugar Tree - Mini
Saturday 12 October 2024 · 70 finishers across every class · 3 laps for the winner
| Pos | No. | Rider | Class | Laps | Time | Behind | Int | Pace |
|---|---|---|---|---|---|---|---|---|
| 1 | #99A | CASH, CARSON | SM 14-15 | 3 | 1:07:04 | — | 0:00 | 22:21 |
| 2 | #42B | LACY, JACK | SM 12-13 | 3 | 1:09:20 | +2:16 | 2:16 | 23:06 |
| 3 | #19A | CAWLEY, MASON | SM 14-15 | 3 | 1:09:42 | +2:38 | 0:22 | 23:14 |
| 4 | #21C | WIGGINS, MADDIX | MINI 12-13 | 3 | 1:12:28 | +5:24 | 2:46 | 24:09 |
| 5 | #25B | HERTZLER, NOAH | SM 12-13 | 3 | 1:12:52 | +5:48 | 0:24 | 24:17 |
| 6 | #1A | PUGH, JACKSON | SM 14-15 | 3 | 1:13:14 | +6:10 | 0:22 | 24:24 |
| 7 | #24C | OLEARY, NOLAN | MINI 12-13 | 3 | 1:13:35 | +6:31 | 0:21 | 24:31 |
| 8 | #36A | FULCHER, THOMAS | SM 14-15 | 3 | 1:15:13 | +8:09 | 1:38 | 25:04 |
| 9 | #14B | MOUNTS, RILEY | SM 12-13 | 3 | 1:15:15 | +8:11 | 0:02 | 25:05 |
| 10 | #50C | JOHNSON, LUCAS | MINI 12-13 | 3 | 1:15:53 | +8:49 | 0:38 | 25:17 |
| 11 | #44B | GEARHART, CADENCE | SM 12-13 | 3 | 1:16:16 | +9:12 | 0:23 | 25:25 |
| 12 | #29A | POFF, PEYTON | SM 14-15 | 3 | 1:16:45 | +9:41 | 0:29 | 25:35 |
| 13 | #51B | RICE, DANE | SM 12-13 | 3 | 1:17:13 | +10:09 | 0:28 | 25:44 |
| 14 | #4C | KERN, QUENTIN | MINI 12-13 | 3 | 1:17:27 | +10:23 | 0:14 | 25:49 |
| 15 | #85B | BUCHANAN, TUCKER | SM 12-13 | 3 | 1:17:45 | +10:41 | 0:18 | 25:55 |
| 16 | #5B | BAKKEN, DASH | SM 12-13 | 3 | 1:18:08 | +11:04 | 0:23 | 26:02 |
| 17 | #42C | COLLINS, JAXON | MINI 12-13 | 3 | 1:19:20 | +12:16 | 1:12 | 26:26 |
| 18 | #5C | MARKHAM, KASEN | MINI 12-13 | 3 | 1:19:22 | +12:18 | 0:02 | 26:27 |
| 19 | #12D | BURKHOLDER, BRADLEY | MINI 9-11 | 3 | 1:19:22 | +12:18 | 0:00 | 26:27 |
| 20 | #23BZ | SMITH, GAVIN | SM 12-13 | 3 | 1:20:17 | +13:13 | 0:55 | 26:45 |
| 21 | #22B | BAKER, COHEN | SM 12-13 | 3 | 1:21:05 | +14:01 | 0:48 | 27:01 |
| 22 | #31A | MOUNTS, HUNTER | SM 14-15 | 3 | 1:21:47 | +14:43 | 0:42 | 27:15 |
| 23 | #40K | WINN, ADDISON | MINI 9-11K | 3 | 1:22:12 | +15:08 | 0:25 | 27:24 |
| 24 | #1K | DOMAN, HAYDEN | MINI 9-11K | 3 | 1:25:16 | +18:12 | 3:04 | 28:25 |
| 25 | #52B | FOUTZ, KELLEN | SM 12-13 | 3 | 1:25:37 | +18:33 | 0:21 | 28:32 |
| 26 | #9KZ | PERKINS, KNOXX | MINI 9-11K | 3 | 1:25:44 | +18:40 | 0:07 | 28:34 |
| 27 | #51K | RICE, HOLTON | MINI 9-11K | 3 | 1:27:19 | +20:15 | 1:35 | 29:06 |
| 28 | #57K | WARREN, MASON | MINI 9-11K | 3 | 1:28:09 | +21:05 | 0:50 | 29:23 |
| 29 | #10E | PANCAKE, LILLIAN | SM WOMEN | 3 | 1:29:16 | +22:12 | 1:07 | 29:45 |
| 30 | #8K | MUTER, MAX | MINI 9-11K | 3 | 1:29:25 | +22:21 | 0:09 | 29:48 |
| 31 | #33C | LILLY, RYDER | MINI 12-13 | 3 | 1:29:50 | +22:46 | 0:25 | 29:56 |
| 32 | #26D | LILLY, WYATT | MINI 9-11 | 3 | 1:30:07 | +23:03 | 0:17 | 30:02 |
| 33 | #69D | LILLY, COLE | MINI 9-11 | 3 | 1:32:07 | +25:03 | 2:00 | 30:42 |
| 34 | #96D | MARKHAM, GUNNER | MINI 9-11 | 3 | 1:32:33 | +25:29 | 0:26 | 30:51 |
| 35 | #55D | KUEBLER, CADEN | MINI 9-11 | 3 | 1:34:39 | +27:35 | 2:06 | 31:33 |
| 36 | #11A | SENTERS, ZEKE | SM 14-15 | 3 | 1:35:06 | +28:02 | 0:27 | 31:42 |
| 37 | #21A | COUVILLION, BRAIDYN | SM 14-15 | 3 | 1:35:11 | +28:07 | 0:05 | 31:43 |
| 38 | #30C | FAIN, JACKSON | MINI 12-13 | 3 | 1:36:21 | +29:17 | 1:10 | 32:07 |
| 39 | #45K | SMITH, BOWEN | MINI 9-11K | 2 | 57:07 | 1 lap | 0:00 | 28:33 |
| 40 | #2E | HARDMAN, SAVANNAH | SM WOMEN | 2 | 58:48 | 1 lap | 1:41 | 29:24 |
| 41 | #13E | NICHOLS, ELLA | SM WOMEN | 2 | 1:01:52 | 1 lap | 3:04 | 30:56 |
| 42 | #26K | SMITH, HUNTER | MINI 9-11K | 2 | 1:03:13 | 1 lap | 1:21 | 31:36 |
| 43 | #8E | PANCAKE, DELILAH | SM WOMEN | 2 | 1:07:23 | 1 lap | 4:10 | 33:41 |
| 44 | #18K | PAYNE, DYLAN | MINI 9-11K | 2 | 1:07:50 | 1 lap | 0:27 | 33:55 |
| 45 | #52A | REYNOLDS, LUCAS | SM 14-15 | 2 | 1:11:13 | 1 lap | 3:23 | 35:36 |
| 46 | #10K | LAMB, BRANTLEY | MINI 9-11K | 2 | 1:12:08 | 1 lap | 0:55 | 36:04 |
| 47 | #42K | FREEMAN, CANON | MINI 9-11K | 2 | 1:13:31 | 1 lap | 1:23 | 36:45 |
| 48 | #27K | MARSH, RYDER | MINI 9-11K | 2 | 1:15:23 | 1 lap | 1:52 | 37:41 |
| 49 | #93D | WEST, WALKER | MINI 9-11 | 2 | 1:15:36 | 1 lap | 0:13 | 37:48 |
| 50 | #48E | LANDRUM, KINLEY | SM WOMEN | 2 | 1:16:00 | 1 lap | 0:24 | 38:00 |
| 51 | #38K | GALFORD, BRADLEY | MINI 9-11K | 2 | 1:16:59 | 1 lap | 0:59 | 38:29 |
| 52 | #24E | WINGO, BELLA | SM WOMEN | 2 | 1:19:42 | 1 lap | 2:43 | 39:51 |
| 53 | #14A | TABLER, TITUS | SM 14-15 | 2 | 1:20:17 | 1 lap | 0:35 | 40:08 |
| 54 | #22K | BAKER, CAMDEN | MINI 9-11K | 2 | 1:27:24 | 1 lap | 7:07 | 43:42 |
| 55 | #25K | ANTHONY, AIDEN | MINI 9-11K | 2 | 1:28:24 | 1 lap | 1:00 | 44:12 |
| 56 | #74K | LOVE, CONNER | MINI 9-11K | 2 | 1:28:49 | 1 lap | 0:25 | 44:24 |
| 57 | #9E | PERKINS, GATELYN | SM WOMEN | 2 | 1:29:52 | 1 lap | 1:03 | 44:56 |
| 58 | #92EZ | MOBLEY, EMILY | SM WOMEN | 2 | 1:30:40 | 1 lap | 0:48 | 45:20 |
| 59 | #77K | LAMB, BRYSON | MINI 9-11K | 2 | 1:32:27 | 1 lap | 1:47 | 46:13 |
| 60 | #12EZ | PINTO, RYLEIGH | SM WOMEN | 2 | 1:32:45 | 1 lap | 0:18 | 46:22 |
| 61 | #10AZ | BROOKS, ISAIAH | SM 14-15 | 1 | 25:20 | 2 laps | 0:00 | 25:20 |
| 62 | #25C | TORRES, TRISTIN | MINI 12-13 | 1 | 29:29 | 2 laps | 4:09 | 29:29 |
| 63 | #38A | BUFFINGTON, TREVOR | SM 14-15 | 1 | 38:48 | 2 laps | 9:19 | 38:48 |
| 64 | #16K | SCHILLUMEIT, SOPHIA | MINI 9-11K | 1 | 46:20 | 2 laps | 7:32 | 46:20 |
| 65 | #72CZ | MILLER, BRAYDEN | MINI 12-13 | 1 | 46:31 | 2 laps | 0:11 | 46:31 |
| 66 | #2K | MEAD, RYLAN | MINI 9-11K | 1 | 47:12 | 2 laps | 0:41 | 47:12 |
| 67 | #79EZ | TURNER, ZOEY | SM WOMEN | 1 | 47:59 | 2 laps | 0:47 | 47:59 |
| 68 | #13DZ | WALKER, BRENT | MINI 9-11 | 1 | 53:50 | 2 laps | 5:51 | 53:50 |
| 69 | #10CZ | FINNEGAN, RYAN | MINI 12-13 | 1 | 55:20 | 2 laps | 1:30 | 55:20 |
| 70 | #54E | SHIFFLETT, ALLIJONDR | SM WOMEN | 1 | 1:07:11 | 2 laps | 11:51 | 1:07:11 |
Ranked the way the series ranks: most laps first, then least time. Behind is the deficit to the winner and is only shown where the lap count matches, because elapsed time says nothing across different lap counts — a rider a lap down shows the laps instead. Int is the gap to the rider immediately ahead.